[[{"header":{"parameterUnit":"m.s-1","parameterCategory":1,"la1":30.2991,"la2":30.254,"lo1":-89.0895,"lo2":-89.0444,"dy":0.0017,"dx":0.0017,"nx":28,"ny":28,"refTime":"2024-07-09T03:00:00:Z","depth":0,"parameterNumber":2,"parameterNumberName":"U-component_of_WINDS"},"data":[0,0,0,0,0,0,0,0,0,0,0,0,0,0,0,0,0,0,0,0,0,0,0,0,0,0,0,0,0,0,0,0,0,0,0,0,0,0,0,0,0,0,0,0,0,0,0,0,0,0,0,0,0,0,0,0,0,0,3.9781,3.9782,0,3.9938,3.9939,3.9941,3.9931,3.9929,3.9926,3.9924,4.0088,4.0094,4.0101,0,0,0,0,0,0,0,0,0,0,0,0,0,3.9474,3.948,3.9781,3.9783,3.9785,3.9937,3.994,3.9942,3.9931,3.9929,3.9926,3.9923,4.0086,4.0094,4.0101,0,0,0,0,0,0,0,0,0,0,0,0,0,3.9617,3.9482,3.978,3.9798,3.9801,3.9937,3.994,3.9942,3.9932,3.9929,3.9925,3.9922,4.0083,4.0093,4.0102,4.0232,0,0,4.0132,4.0137,0,0,0,0,0,0,0,0,3.9609,3.9628,3.9793,3.9797,3.9801,3.9911,3.9891,4.004,3.9933,3.9882,3.9924,3.992,4.0032,4.0046,4.0083,4.024,4.0247,4.0133,4.0139,4.0143,4.0146,0,0,0,0,0,0,0,3.9599,3.9621,3.9843,3.9796,3.98,3.9798,3.9815,3.992,3.9975,3.9886,3.9886,3.9905,4.0034,4.0074,4.0087,4.0249,4.0133,4.0142,4.0148,4.0152,4.052,4.0523,0,0,0,0,0,0,3.9585,3.9613,3.9838,3.9847,3.9694,3.9807,3.9825,3.9879,3.9974,3.9985,3.9907,3.9904,4.0059,4.0075,4.0093,4.025,4.0143,4.0152,4.0158,4.0516,4.052,4.0525,0,0,0,0,0,0,3.9578,3.9605,3.9831,3.973,3.9759,3.9816,3.9876,3.9884,3.9924,3.999,4.0,3.9938,4.0057,4.0079,4.0197,4.0255,4.0157,4.0166,4.0511,4.0517,4.0523,4.0566,0,0,0,0,0,0,3.9569,3.9603,3.9652,3.9731,3.9764,3.9933,3.988,3.989,3.9941,3.9937,4.0021,4.0032,4.0056,4.0183,4.0207,4.0267,4.0173,4.0506,4.0514,4.0521,4.056,4.0573,4.0584,0,0,0,0,0,3.9558,3.9659,3.9655,3.9682,3.9827,3.9936,3.9955,3.998,3.9945,3.9996,4.0038,4.0029,4.0245,4.0195,4.0222,4.0286,4.0503,4.0512,4.052,4.0554,4.057,4.0583,0,0,0,0,0,0,3.9586,3.967,3.9666,3.9795,3.9858,3.9934,3.9999,3.9996,4.0072,4.0065,4.0094,4.0113,4.0231,4.0271,4.0213,4.0416,4.0369,4.0384,4.0386,4.0402,4.0413,4.0401,4.0182,0,0,0,0,0,3.9607,3.9688,3.9757,3.9864,3.9896,3.9942,3.999,4.0004,4.0071,4.0098,4.0149,4.0215,4.0298,4.0352,4.0432,4.0565,4.0583,4.0623,4.0635,4.0644,4.0657,4.0729,4.0747,4.0554,4.0554,4.0553,0,0,3.9651,3.9707,3.9757,3.9871,3.9922,4.0005,3.9965,4.0055,4.0117,4.0112,4.0226,4.0266,4.0342,4.0468,4.0526,4.0505,4.0714,4.0656,4.0663,4.067,4.074,4.0758,4.0775,4.056,4.0559,4.0558,0,0,3.9775,3.9825,3.9919,3.9971,4.0048,4.0077,4.01,4.0176,4.0202,4.0317,4.0314,4.0389,4.0532,4.0586,4.0632,4.0774,4.0769,4.08,4.0863,4.0933,4.0948,4.0962,4.1012,4.103,4.0812,4.0812,4.0812,0,3.982,3.9945,3.9968,4.0059,4.0109,4.0107,4.0203,4.0252,4.0352,4.0387,4.0361,4.0538,4.059,4.0728,4.0762,4.08,4.0827,4.079,4.0944,4.0958,4.0971,4.1019,4.1038,4.0815,4.0815,4.0815,4.0814,0,3.9997,4.0084,4.0151,4.0245,4.0303,4.0396,4.0433,4.0489,4.0498,4.053,4.0647,4.0708,4.08,4.0834,4.0843,4.0973,4.0957,4.0938,4.0891,4.0992,4.1038,4.1057,4.082,4.0819,4.0818,4.0817,0,0,4.0142,4.0248,4.0272,4.0314,4.0399,4.0466,4.0559,4.0648,4.0695,4.0764,4.0842,4.0962,4.0943,4.0996,4.1012,4.1073,4.1181,4.1046,4.1048,4.1068,4.1327,4.1341,4.1362,4.1178,4.1182,4.1185,4.1321,0,4.0273,4.0436,4.046,4.0604,4.0684,4.0683,4.0763,4.0824,4.0857,4.093,4.0967,4.1051,4.1021,4.1052,4.1114,4.1155,4.1234,4.1146,4.1252,4.1255,4.1232,4.1386,4.1401,4.1526,4.1339,4.1342,4.1344,0,4.0448,4.052,4.0672,4.0744,4.0779,4.0851,4.0933,4.1003,4.1072,4.1091,4.1149,4.1157,4.1253,4.1203,4.1336,4.1275,4.132,4.1347,4.1352,4.1363,4.1305,4.14,4.1567,4.1585,4.1373,4.137,4.1368,0,4.0538,4.0673,4.0781,4.0817,4.0905,4.0955,4.0994,4.1059,4.1111,4.1183,4.1217,4.13,4.1346,4.141,4.144,4.1401,4.1571,4.1523,4.159,4.1589,4.1626,4.1623,4.1802,4.1656,4.1655,4.1655,4.1655,0,4.0681,4.0774,4.0822,4.0888,4.0992,4.1018,4.112,4.1158,4.1216,4.1289,4.1295,4.1364,4.14,4.1475,4.1499,4.1605,4.1626,4.1644,4.165,4.1644,4.1641,4.1673,4.1665,4.166,4.1659,4.1658,4.1657,0,4.0799,4.0835,4.0952,4.1025,4.1045,4.1118,4.1181,4.1246,4.1277,4.1371,4.1394,4.1445,4.1533,4.1569,4.1678,4.1695,4.1816,4.1815,4.1792,4.1794,4.1858,4.1851,4.2063,4.2092,4.1927,4.1929,4.193,0,4.0888,4.0959,4.1039,4.1088,4.1128,4.1208,4.126,4.1288,4.1342,4.1425,4.148,4.1568,4.164,4.1781,4.1828,4.1911,4.1912,4.198,4.1924,4.1915,4.1912,4.1907,4.1914,4.199,4.1992,4.1993,4.1994,0,4.1042,4.1056,4.113,4.121,4.1272,4.1337,4.1401,4.1441,4.1479,4.154,4.1629,4.1685,4.1795,4.1882,4.1968,4.2009,4.2008,4.2011,4.2031,4.2025,4.2009,4.2018,4.182,4.2006,4.2005,4.2004,4.2004,4.2003,4.1147,4.121,4.1275,4.1358,4.1408,4.1467,4.1531,4.157,4.1645,4.1736,4.1749,4.1845,4.1911,4.2026,4.207,4.2146,4.2128,4.2157,4.2164,4.2171,4.2174,4.1997,4.2162,4.2161,4.2161,4.2161,4.2161,0,4.1301,4.1342,4.1418,4.1506,4.1571,4.1563,4.1633,4.1688,4.1772,4.1833,4.1903,4.2006,4.209,4.2144,4.2229,4.2279,4.2281,4.23,4.2297,4.2306,4.2186,4.216,4.2297,4.2297,4.2297,4.2297,4.2297,4.2297,4.1388,4.1493,4.1515,4.1645,4.1686,4.1779,4.182,4.1874,4.1923,4.2037,4.2107,4.214,4.2199,4.2288,4.2365,4.2378,4.2409,4.243,4.2442,4.2329,4.2314,4.2301,4.2277,4.2436,4.2437,4.2556,4.2557,4.2558]},{"header":{"parameterUnit":"m.s-1","parameterCategory":1,"la1":30.2991,"la2":30.254,"lo1":-89.0895,"lo2":-89.0444,"dy":0.0017,"dx":0.0017,"nx":28,"ny":28,"refTime":"2024-07-09T03:00:00:Z","depth":0,"parameterNumber":3,"parameterNumberName":"V-component_of_WINDS"},"data":[0,0,0,0,0,0,0,0,0,0,0,0,0,0,0,0,0,0,0,0,0,0,0,0,0,0,0,0,0,0,0,0,0,0,0,0,0,0,0,0,0,0,0,0,0,0,0,0,0,0,0,0,0,0,0,0,0,0,5.7331,5.7332,0,5.7441,5.7442,5.7443,5.7435,5.7433,5.7431,5.743,5.7538,5.7542,5.7546,0,0,0,0,0,0,0,0,0,0,0,0,0,5.711,5.7114,5.7331,5.7333,5.7334,5.7441,5.7442,5.7444,5.7435,5.7433,5.7431,5.7429,5.7536,5.7542,5.7547,0,0,0,0,0,0,0,0,0,0,0,0,0,5.7211,5.7115,5.7331,5.7343,5.7345,5.744,5.7442,5.7444,5.7435,5.7433,5.743,5.7428,5.7535,5.7541,5.7548,5.7637,0,0,5.7568,5.7571,0,0,0,0,0,0,0,0,5.7206,5.7219,5.734,5.7342,5.7345,5.7422,5.7404,5.7509,5.7436,5.7401,5.743,5.7427,5.7501,5.751,5.7536,5.7642,5.7647,5.7568,5.7572,5.7575,5.7577,0,0,0,0,0,0,0,5.7199,5.7215,5.7374,5.7341,5.7344,5.7341,5.7352,5.7423,5.7463,5.7404,5.7403,5.7417,5.7502,5.7529,5.7538,5.7649,5.7568,5.7574,5.7578,5.7581,5.7833,5.7835,0,0,0,0,0,0,5.719,5.7209,5.7371,5.7378,5.7268,5.7347,5.736,5.7399,5.7462,5.747,5.7419,5.7416,5.7519,5.7531,5.7542,5.7651,5.7575,5.7581,5.7585,5.783,5.7833,5.7836,0,0,0,0,0,0,5.7185,5.7204,5.7366,5.7293,5.7314,5.7353,5.7397,5.7403,5.7431,5.7474,5.748,5.744,5.7518,5.7533,5.7614,5.7654,5.7584,5.759,5.7827,5.7831,5.7835,5.7869,0,0,0,0,0,0,5.7179,5.7202,5.7238,5.7294,5.7318,5.7438,5.74,5.7407,5.7442,5.744,5.7496,5.7502,5.7517,5.7604,5.762,5.7662,5.7595,5.7823,5.7829,5.7834,5.7865,5.7874,5.7882,0,0,0,0,0,5.7171,5.7243,5.724,5.726,5.7363,5.744,5.7454,5.747,5.7446,5.7481,5.7509,5.7501,5.7647,5.7612,5.7631,5.7675,5.7821,5.7827,5.7833,5.7861,5.7872,5.7882,0,0,0,0,0,0,5.7189,5.725,5.7248,5.7341,5.7386,5.7439,5.7484,5.7482,5.7534,5.7529,5.7546,5.7559,5.764,5.7665,5.7625,5.7765,5.7731,5.7741,5.7745,5.7756,5.7765,5.7757,5.7601,0,0,0,0,0,5.7205,5.7263,5.7313,5.739,5.7413,5.7445,5.7479,5.7488,5.7534,5.7553,5.7586,5.763,5.7686,5.7723,5.7776,5.7868,5.7879,5.7907,5.7916,5.7923,5.7932,5.7981,5.7994,5.7857,5.7857,5.7856,0,0,5.7236,5.7277,5.7313,5.7395,5.743,5.7489,5.746,5.7524,5.7568,5.7562,5.7641,5.7667,5.7717,5.7803,5.7843,5.7827,5.7972,5.7931,5.7936,5.7941,5.7988,5.8001,5.8013,5.7861,5.786,5.7859,0,0,5.7324,5.7361,5.7429,5.7465,5.752,5.7541,5.7557,5.7611,5.7628,5.7707,5.7704,5.7755,5.7851,5.7887,5.7918,5.8018,5.8012,5.8035,5.808,5.8128,5.8139,5.8148,5.8183,5.8196,5.8043,5.8043,5.8043,0,5.7356,5.7446,5.7464,5.7528,5.7564,5.7562,5.763,5.7664,5.7733,5.7757,5.7738,5.7859,5.7892,5.7987,5.8011,5.8036,5.8054,5.8029,5.8136,5.8146,5.8155,5.8189,5.8202,5.8046,5.8045,5.8045,5.8045,0,5.7482,5.7545,5.7593,5.7661,5.7702,5.7768,5.7793,5.7832,5.7837,5.7859,5.7939,5.798,5.8042,5.8064,5.807,5.8159,5.8148,5.8132,5.8099,5.817,5.8202,5.8215,5.8049,5.8048,5.8047,5.8047,0,0,5.7586,5.7662,5.7679,5.771,5.777,5.7818,5.7882,5.7944,5.7977,5.8024,5.8078,5.8159,5.8145,5.818,5.8189,5.8231,5.8307,5.821,5.8212,5.8226,5.8407,5.8418,5.8433,5.8303,5.8305,5.8307,5.8402,0,5.7679,5.7796,5.7813,5.7916,5.7973,5.7971,5.8028,5.8069,5.8091,5.8142,5.8165,5.8222,5.82,5.8221,5.8263,5.8289,5.8343,5.8282,5.8352,5.8354,5.834,5.8449,5.8462,5.8549,5.8415,5.8417,5.8419,0,5.7804,5.7856,5.7965,5.8016,5.804,5.8091,5.8148,5.8197,5.8244,5.8256,5.8295,5.8299,5.8364,5.8327,5.8417,5.8375,5.8405,5.8422,5.8425,5.8433,5.8391,5.8459,5.8578,5.8591,5.8438,5.8437,5.8435,0,5.7868,5.7965,5.8042,5.8068,5.813,5.8165,5.8193,5.8237,5.8273,5.8322,5.8345,5.8401,5.8431,5.8473,5.8491,5.8463,5.858,5.8544,5.8591,5.8591,5.8616,5.8614,5.8741,5.8635,5.8635,5.8634,5.8634,0,5.7971,5.8037,5.8072,5.8119,5.8193,5.8211,5.8283,5.8308,5.8348,5.8399,5.84,5.8448,5.8469,5.8519,5.8533,5.8605,5.8619,5.863,5.8633,5.863,5.8628,5.8649,5.8644,5.8638,5.8637,5.8636,5.8636,0,5.8055,5.8081,5.8165,5.8217,5.8231,5.8283,5.8326,5.8372,5.8393,5.8457,5.8474,5.8506,5.8566,5.8588,5.866,5.8669,5.8752,5.875,5.8737,5.8737,5.8783,5.8778,5.8927,5.8947,5.8828,5.8829,5.883,0,5.8119,5.817,5.8227,5.8262,5.8291,5.8347,5.8384,5.8403,5.844,5.8497,5.8535,5.8594,5.8643,5.8737,5.8767,5.8821,5.882,5.8869,5.8829,5.8824,5.8821,5.8818,5.8822,5.8876,5.8878,5.8879,5.8879,0,5.8229,5.8239,5.8293,5.835,5.8394,5.844,5.8484,5.8513,5.8538,5.858,5.8641,5.8679,5.8753,5.8811,5.8867,5.8893,5.889,5.8892,5.8905,5.8903,5.8893,5.8899,5.8757,5.8888,5.8887,5.8887,5.8886,5.8886,5.8305,5.835,5.8397,5.8456,5.8492,5.8533,5.8578,5.8605,5.8657,5.872,5.8727,5.8793,5.8837,5.8912,5.894,5.8991,5.8977,5.8997,5.9002,5.9007,5.901,5.8885,5.9001,5.9001,5.9,5.9,5.9,0,5.8415,5.8445,5.8499,5.8562,5.8608,5.8602,5.8651,5.8689,5.8748,5.879,5.8838,5.8907,5.8964,5.8997,5.9054,5.9087,5.9087,5.9101,5.9099,5.9105,5.9019,5.9001,5.9101,5.9101,5.9101,5.9101,5.91,5.91,5.8478,5.8554,5.8569,5.8662,5.8691,5.8757,5.8785,5.8822,5.8856,5.8934,5.8982,5.9004,5.9042,5.9101,5.9152,5.916,5.918,5.9196,5.9203,5.9121,5.9111,5.9101,5.9085,5.92,5.92,5.9285,5.9285,5.9286]}]]